Location: Poughquag
(41.6090°N, 73.6820°W)
Time: 12:18:35
(UTC-04:00)

Vanguard 2 - Pass Details

Date: 07 June 2020
Orbit: 552 x 2938 km, 32.9° (Epoch: 05 July)

Event Time Altitude Azimuth Distance (km) Brightness Sun altitude
Rises 19:53:26 0° 262° (W) 6,549 13.3 4.6°
Reaches altitude 10° 19:58:16 10° 259° (W) 5,302 12.7 3.8°
Maximum altitude 20:12:21 55° 188° (S) 2,179 9.8 1.5°
Drops below altitude 10° 20:21:03 10° 113° (ESE) 3,374 10.2 0.1°
Sets 20:23:27 0° 108° (ESE) 4,084 10.6 -0.3°
